This is the latest recevied weather packets stored in our database for station/object KC8PTQ. If no packets are shown the sender has not sent any weather packets the latest 10 day(s).
| Time | Temp. | Humidity | Pressure | Rain* | Wind** | Luminosity | Snow |
|---|---|---|---|---|---|---|---|
| 1778168320 | 12.78° C | 46% | 1014 hPa | 0 mm | - | 265 W/m² | - |
| 1778168016 | 12.78° C | 55% | 1014.1 hPa | 0 mm | - | 247 W/m² | - |
| 1778167713 | 12.78° C | 49% | 1014 hPa | 0 mm | - | 297 W/m² | - |
| 1778167409 | 12.78° C | 48% | 1014.1 hPa | 0 mm | - | 238 W/m² | - |
| 1778167105 | 12.78° C | 47% | 1013.9 hPa | 0 mm | - | 323 W/m² | - |
| 1778166801 | 12.78° C | 50% | 1014 hPa | 0 mm | - | 121 W/m² | - |
| 1778166499 | 12.78° C | 54% | 1014 hPa | 0 mm | - | 123 W/m² | - |
| 1778166195 | 12.22° C | 51% | 1014.2 hPa | 0 mm | - | 500 W/m² | - |
| 1778165891 | 11.67° C | 56% | 1014.2 hPa | 0 mm | - | 430 W/m² | - |
| 1778165588 | 11.67° C | 59% | 1014.3 hPa | 0 mm | - | 208 W/m² | - |
| 1778165285 | 11.67° C | 60% | 1014.2 hPa | 0 mm | - | 202 W/m² | - |
| 1778164982 | 11.11° C | 64% | 1014 hPa | 0 mm | - | 238 W/m² | - |
| 1778164678 | 11.67° C | 59% | 1014.1 hPa | 0 mm | - | 196 W/m² | - |
| 1778164376 | 11.11° C | 62% | 1014.1 hPa | 0 mm | - | 179 W/m² | - |
| 1778164071 | 11.67° C | 66% | 1014.1 hPa | 0 mm | - | 81 W/m² | - |
| 1778163768 | 11.11° C | 70% | 1014.1 hPa | 0 mm | - | 345 W/m² | - |
| 1778163465 | 10.56° C | 66% | 1014 hPa | 0 mm | - | 85 W/m² | - |
| 1778163162 | 10.56° C | 66% | 1014.2 hPa | 0 mm | - | 390 W/m² | - |
| 1778162857 | 10.56° C | 64% | 1014.3 hPa | 0 mm | - | 241 W/m² | - |
| 1778162556 | 10.56° C | 67% | 1014.3 hPa | 0 mm | - | 253 W/m² | - |
| 1778162253 | 10.56° C | 65% | 1014.3 hPa | 0 mm | - | 44 W/m² | - |
| 1778161950 | 10.56° C | 69% | 1014.4 hPa | 0 mm | - | 284 W/m² | - |
| 1778161646 | 10° C | 69% | 1014.4 hPa | 0 mm | - | 387 W/m² | - |
| 1778161342 | 9.44° C | 72% | 1014.5 hPa | 0 mm | - | 359 W/m² | - |
| 1778161038 | 8.89° C | 73% | 1014.6 hPa | 0 mm | - | 251 W/m² | - |
* Rain latest hour (hover to see other rain measurements)
** Current wind speed in m/s (hover to see current wind gust speed)